Time,TemperatureF,DewpointF,PressureIn,WindDirection,WindDirectionDegrees,WindSpeedMPH,WindSpeedGustMPH,Humidity,HourlyPrecipIn,Conditions,Clouds,dailyrainin,SoftwareType,DateUTC
2013-01-07 00:00:00,29.7,24.3,30.33,WNW,291,1.0,3.0,80,0.00,,,0.00,meteohub,2013-01-07 05:00:00,
2013-01-07 00:02:00,29.7,24.3,30.33,West,277,1.0,3.0,80,0.00,,,0.00,meteohub,2013-01-07 05:02:00,
2013-01-07 00:07:00,29.7,24.3,30.33,NW,326,2.0,4.0,80,0.00,,,0.00,meteohub,2013-01-07 05:07:00,
2013-01-07 00:12:00,29.7,24.3,30.33,West,278,0.0,5.0,80,0.00,,,0.00,meteohub,2013-01-07 05:12:00,
2013-01-07 00:16:00,29.7,24.3,30.33,NW,309,0.0,5.0,80,0.00,,,0.00,meteohub,2013-01-07 05:16:00,
2013-01-07 00:21:00,29.7,24.3,30.33,NNE,12,2.0,5.0,80,0.00,,,0.00,meteohub,2013-01-07 05:21:00,
2013-01-07 00:26:00,29.7,24.3,30.33,SSW,193,0.0,5.0,80,0.00,,,0.00,meteohub,2013-01-07 05:26:00,
2013-01-07 00:31:00,29.7,24.3,30.33,WNW,289,1.0,5.0,80,0.00,,,0.00,meteohub,2013-01-07 05:31:00,
2013-01-07 00:36:00,29.7,24.3,30.33,West,274,0.0,3.0,80,0.00,,,0.00,meteohub,2013-01-07 05:36:00,
2013-01-07 00:41:00,29.7,24.3,30.33,West,262,0.0,3.0,80,0.00,,,0.00,meteohub,2013-01-07 05:41:00,
2013-01-07 00:46:00,29.7,24.3,30.33,West,280,0.0,4.0,80,0.00,,,0.00,meteohub,2013-01-07 05:46:00,
2013-01-07 00:52:00,29.7,24.6,30.33,North,356,0.0,4.0,81,0.00,,,0.00,meteohub,2013-01-07 05:52:00,
2013-01-07 00:57:00,29.7,24.3,30.32,North,355,0.0,4.0,80,0.00,,,0.00,meteohub,2013-01-07 05:57:00,
2013-01-07 01:02:00,29.7,24.3,30.32,WNW,287,0.0,1.0,80,0.00,,,0.00,meteohub,2013-01-07 06:02:00,
2013-01-07 01:07:00,29.7,24.3,30.32,West,265,0.0,1.0,80,0.00,,,0.00,meteohub,2013-01-07 06:07:00,
2013-01-07 01:12:00,29.7,24.3,30.33,West,280,0.0,2.0,80,0.00,,,0.00,meteohub,2013-01-07 06:12:00,
2013-01-07 01:17:00,29.7,24.6,30.33,SSW,210,0.0,2.0,81,0.00,,,0.00,meteohub,2013-01-07 06:17:00,
2013-01-07 01:22:00,29.5,24.4,30.33,SW,219,0.0,1.0,81,0.00,,,0.00,meteohub,2013-01-07 06:22:00,
2013-01-07 01:27:00,29.5,24.4,30.33,SW,217,0.0,1.0,81,0.00,,,0.00,meteohub,2013-01-07 06:27:00,
2013-01-07 01:32:00,29.3,24.3,30.33,WSW,245,0.0,1.0,81,0.00,,,0.00,meteohub,2013-01-07 06:32:00,
2013-01-07 01:37:00,29.3,24.3,30.33,SW,233,0.0,1.0,81,0.00,,,0.00,meteohub,2013-01-07 06:37:00,
2013-01-07 01:42:00,29.3,24.3,30.33,West,262,1.0,1.0,81,0.00,,,0.00,meteohub,2013-01-07 06:42:00,
2013-01-07 01:47:00,29.5,24.4,30.33,SSW,208,0.0,2.0,81,0.00,,,0.00,meteohub,2013-01-07 06:47:00,
2013-01-07 01:52:00,29.1,24.3,30.33,WSW,250,1.0,2.0,82,0.00,,,0.00,meteohub,2013-01-07 06:52:00,
2013-01-07 01:57:00,29.1,24.3,30.33,WSW,243,0.0,2.0,82,0.00,,,0.00,meteohub,2013-01-07 06:57:00,
2013-01-07 02:02:00,29.1,24.3,30.34,WSW,239,0.0,2.0,82,0.00,,,0.00,meteohub,2013-01-07 07:02:00,
2013-01-07 02:07:00,28.9,24.1,30.35,WSW,248,1.0,2.0,82,0.00,,,0.00,meteohub,2013-01-07 07:07:00,
2013-01-07 02:12:00,28.9,24.4,30.35,WSW,239,0.0,1.0,83,0.00,,,0.00,meteohub,2013-01-07 07:12:00,
2013-01-07 02:17:00,29.1,24.3,30.35,SW,225,0.0,1.0,82,0.00,,,0.00,meteohub,2013-01-07 07:17:00,
2013-01-07 02:22:00,28.9,24.4,30.34,SW,233,0.0,1.0,83,0.00,,,0.00,meteohub,2013-01-07 07:22:00,
2013-01-07 02:27:00,28.9,24.4,30.34,SW,228,0.0,1.0,83,0.00,,,0.00,meteohub,2013-01-07 07:27:00,
2013-01-07 02:32:00,28.9,24.4,30.35,WSW,242,1.0,1.0,83,0.00,,,0.00,meteohub,2013-01-07 07:32:00,
2013-01-07 02:37:00,28.9,24.4,30.35,SSW,205,1.0,1.0,83,0.00,,,0.00,meteohub,2013-01-07 07:37:00,
2013-01-07 02:42:00,28.9,24.4,30.35,SSW,207,0.0,2.0,83,0.00,,,0.00,meteohub,2013-01-07 07:42:00,
2013-01-07 02:47:00,28.9,24.1,30.35,SW,224,1.0,2.0,82,0.00,,,0.00,meteohub,2013-01-07 07:47:00,
2013-01-07 02:52:00,28.9,24.4,30.35,SSW,208,1.0,2.0,83,0.00,,,0.00,meteohub,2013-01-07 07:52:00,
2013-01-07 02:57:00,28.9,24.4,30.35,SW,233,0.0,2.0,83,0.00,,,0.00,meteohub,2013-01-07 07:57:00,
2013-01-07 03:02:00,28.9,24.4,30.35,SSW,203,1.0,2.0,83,0.00,,,0.00,meteohub,2013-01-07 08:02:00,
2013-01-07 03:07:00,28.8,24.3,30.35,SSW,194,2.0,2.0,83,0.00,,,0.00,meteohub,2013-01-07 08:07:00,
2013-01-07 03:12:00,28.6,24.1,30.35,SSW,205,1.0,3.0,83,0.00,,,0.00,meteohub,2013-01-07 08:12:00,
2013-01-07 03:17:00,28.2,23.4,30.35,WSW,242,0.0,3.0,82,0.00,,,0.00,meteohub,2013-01-07 08:17:00,
2013-01-07 03:22:00,27.9,23.4,30.35,SSE,167,3.0,3.0,83,0.00,,,0.00,meteohub,2013-01-07 08:22:00,
2013-01-07 03:27:00,27.3,23.2,30.35,SW,233,0.0,3.0,84,0.00,,,0.00,meteohub,2013-01-07 08:27:00,
2013-01-07 03:32:00,27.1,23.2,30.35,WSW,242,0.0,3.0,85,0.00,,,0.00,meteohub,2013-01-07 08:32:00,
2013-01-07 03:37:00,27.0,23.0,30.35,WSW,242,0.0,3.0,85,0.00,,,0.00,meteohub,2013-01-07 08:37:00,
2013-01-07 03:42:00,26.8,22.8,30.36,SSE,148,1.0,1.0,85,0.00,,,0.00,meteohub,2013-01-07 08:42:00,
2013-01-07 03:47:00,26.2,22.3,30.36,SSE,154,0.0,2.0,85,0.00,,,0.00,meteohub,2013-01-07 08:47:00,
2013-01-07 03:52:00,26.1,22.1,30.36,SSE,147,0.0,2.0,85,0.00,,,0.00,meteohub,2013-01-07 08:52:00,
2013-01-07 03:57:00,25.5,21.9,30.36,SE,146,0.0,2.0,86,0.00,,,0.00,meteohub,2013-01-07 08:57:00,
2013-01-07 04:02:00,25.3,21.7,30.36,SSE,147,0.0,2.0,86,0.00,,,0.00,meteohub,2013-01-07 09:02:00,
2013-01-07 04:07:00,24.8,21.6,30.36,SSE,147,0.0,1.0,87,0.00,,,0.00,meteohub,2013-01-07 09:07:00,
2013-01-07 04:12:00,24.6,21.6,30.36,SSE,158,0.0,0.0,88,0.00,,,0.00,meteohub,2013-01-07 09:12:00,
2013-01-07 04:17:00,24.6,21.6,30.36,SSE,160,0.0,0.0,88,0.00,,,0.00,meteohub,2013-01-07 09:17:00,
2013-01-07 04:22:00,24.3,21.2,30.36,SW,232,1.0,0.0,88,0.00,,,0.00,meteohub,2013-01-07 09:22:00,
2013-01-07 04:27:00,24.4,21.9,30.36,SW,236,0.0,1.0,90,0.00,,,0.00,meteohub,2013-01-07 09:27:00,
2013-01-07 04:32:00,24.4,21.7,30.36,SSE,153,0.0,1.0,89,0.00,,,0.00,meteohub,2013-01-07 09:32:00,
2013-01-07 04:37:00,24.3,21.6,30.36,SSE,153,0.0,2.0,89,0.00,,,0.00,meteohub,2013-01-07 09:37:00,
2013-01-07 04:42:00,24.1,21.4,30.36,SE,142,1.0,2.0,89,0.00,,,0.00,meteohub,2013-01-07 09:42:00,
2013-01-07 04:47:00,24.1,21.4,30.37,SE,137,0.0,2.0,89,0.00,,,0.00,meteohub,2013-01-07 09:47:00,
2013-01-07 04:52:00,23.7,21.0,30.37,SE,136,0.0,2.0,89,0.00,,,0.00,meteohub,2013-01-07 09:52:00,
2013-01-07 04:58:00,24.1,21.6,30.38,WSW,257,1.0,2.0,90,0.00,,,0.00,meteohub,2013-01-07 09:58:00,
2013-01-07 05:03:00,23.7,21.0,30.38,SW,224,0.0,1.0,89,0.00,,,0.00,meteohub,2013-01-07 10:03:00,
2013-01-07 05:08:00,23.4,20.7,30.38,SW,224,0.0,1.0,89,0.00,,,0.00,meteohub,2013-01-07 10:08:00,
2013-01-07 05:13:00,23.2,20.5,30.38,SW,224,1.0,1.0,89,0.00,,,0.00,meteohub,2013-01-07 10:13:00,
2013-01-07 05:18:00,23.2,20.7,30.38,SW,226,0.0,1.0,90,0.00,,,0.00,meteohub,2013-01-07 10:18:00,
2013-01-07 05:23:00,23.0,20.5,30.38,WSW,240,1.0,1.0,90,0.00,,,0.00,meteohub,2013-01-07 10:23:00,
2013-01-07 05:28:00,22.8,20.7,30.38,West,266,1.0,1.0,91,0.00,,,0.00,meteohub,2013-01-07 10:28:00,
2013-01-07 05:33:00,22.6,20.5,30.38,WSW,240,0.0,2.0,91,0.00,,,0.00,meteohub,2013-01-07 10:33:00,
2013-01-07 05:38:00,22.5,20.3,30.39,SW,219,0.0,2.0,91,0.00,,,0.00,meteohub,2013-01-07 10:38:00,
2013-01-07 05:43:00,22.3,20.1,30.39,SW,214,0.0,1.0,91,0.00,,,0.00,meteohub,2013-01-07 10:43:00,
2013-01-07 05:48:00,22.1,19.9,30.39,SW,231,0.0,1.0,91,0.00,,,0.00,meteohub,2013-01-07 10:48:00,
2013-01-07 05:53:00,22.1,20.1,30.39,WSW,243,0.0,1.0,92,0.00,,,0.00,meteohub,2013-01-07 10:53:00,
2013-01-07 05:58:00,22.1,20.1,30.40,SW,228,0.0,1.0,92,0.00,,,0.00,meteohub,2013-01-07 10:58:00,
2013-01-07 06:03:00,21.7,19.6,30.40,SW,214,1.0,1.0,91,0.00,,,0.00,meteohub,2013-01-07 11:03:00,
2013-01-07 06:08:00,21.4,19.2,30.39,SSE,165,0.0,1.0,91,0.00,,,0.00,meteohub,2013-01-07 11:08:00,
2013-01-07 06:13:00,21.6,19.6,30.40,SSE,165,0.0,2.0,92,0.00,,,0.00,meteohub,2013-01-07 11:13:00,
2013-01-07 06:18:00,21.6,19.6,30.40,South,181,0.0,2.0,92,0.00,,,0.00,meteohub,2013-01-07 11:18:00,
2013-01-07 06:23:00,21.6,19.6,30.40,NW,307,0.0,2.0,92,0.00,,,0.00,meteohub,2013-01-07 11:23:00,
2013-01-07 06:28:00,21.4,19.4,30.41,SSW,212,0.0,0.0,92,0.00,,,0.00,meteohub,2013-01-07 11:28:00,
2013-01-07 06:33:00,20.7,18.5,30.41,SW,218,0.0,0.0,91,0.00,,,0.00,meteohub,2013-01-07 11:33:00,
2013-01-07 06:38:00,20.1,18.0,30.41,SW,219,0.0,0.0,91,0.00,,,0.00,meteohub,2013-01-07 11:38:00,
2013-01-07 06:43:00,20.1,18.1,30.41,SW,222,0.0,0.0,92,0.00,,,0.00,meteohub,2013-01-07 11:43:00,
2013-01-07 06:48:00,20.3,18.7,30.42,SW,225,0.0,0.0,93,0.00,,,0.00,meteohub,2013-01-07 11:48:00,
2013-01-07 06:53:00,20.5,18.5,30.42,SW,226,0.0,0.0,92,0.00,,,0.00,meteohub,2013-01-07 11:53:00,
2013-01-07 06:58:00,20.1,18.1,30.43,SW,228,0.0,0.0,92,0.00,,,0.00,meteohub,2013-01-07 11:58:00,
2013-01-07 07:03:00,19.8,17.8,30.43,SW,228,0.0,0.0,92,0.00,,,0.00,meteohub,2013-01-07 12:03:00,
2013-01-07 07:08:00,19.6,17.6,30.43,SW,227,0.0,0.0,92,0.00,,,0.00,meteohub,2013-01-07 12:08:00,
2013-01-07 07:13:00,19.8,18.1,30.43,SW,232,0.0,0.0,93,0.00,,,0.00,meteohub,2013-01-07 12:13:00,
2013-01-07 07:18:00,19.8,18.1,30.43,SW,232,0.0,0.0,93,0.00,,,0.00,meteohub,2013-01-07 12:18:00,
2013-01-07 07:23:00,19.4,17.8,30.43,SW,232,0.0,0.0,93,0.00,,,0.00,meteohub,2013-01-07 12:23:00,
2013-01-07 07:28:00,19.2,17.6,30.43,SW,232,0.0,0.0,93,0.00,,,0.00,meteohub,2013-01-07 12:28:00,
2013-01-07 07:33:00,19.4,17.8,30.43,SW,232,0.0,0.0,93,0.00,,,0.00,meteohub,2013-01-07 12:33:00,
2013-01-07 07:38:00,19.2,17.6,30.43,SW,233,0.0,0.0,93,0.00,,,0.00,meteohub,2013-01-07 12:38:00,
2013-01-07 07:43:00,19.2,17.6,30.43,SW,232,0.0,0.0,93,0.00,,,0.00,meteohub,2013-01-07 12:43:00,
2013-01-07 07:48:00,19.2,17.6,30.44,SW,232,0.0,0.0,93,0.00,,,0.00,meteohub,2013-01-07 12:48:00,
2013-01-07 07:53:00,19.0,17.4,30.44,SW,232,0.0,0.0,93,0.00,,,0.00,meteohub,2013-01-07 12:53:00,
2013-01-07 07:58:00,18.9,17.2,30.44,SW,232,0.0,0.0,93,0.00,,,0.00,meteohub,2013-01-07 12:58:00,
2013-01-07 08:03:00,18.7,17.1,30.44,SW,232,0.0,0.0,93,0.00,,,0.00,meteohub,2013-01-07 13:03:00,
2013-01-07 08:08:00,18.3,16.7,30.44,SW,232,0.0,0.0,93,0.00,,,0.00,meteohub,2013-01-07 13:08:00,
2013-01-07 08:13:00,18.3,16.7,30.44,WSW,238,0.0,0.0,93,0.00,,,0.00,meteohub,2013-01-07 13:13:00,
2013-01-07 08:18:00,18.3,16.7,30.45,WSW,238,0.0,0.0,93,0.00,,,0.00,meteohub,2013-01-07 13:18:00,
2013-01-07 08:23:00,18.3,16.7,30.45,WSW,238,0.0,0.0,93,0.00,,,0.00,meteohub,2013-01-07 13:23:00,
2013-01-07 08:29:00,18.1,16.5,30.45,WSW,238,0.0,0.0,93,0.00,,,0.00,meteohub,2013-01-07 13:29:00,
2013-01-07 08:34:00,18.3,16.7,30.45,WSW,238,0.0,0.0,93,0.00,,,0.00,meteohub,2013-01-07 13:34:00,
2013-01-07 08:38:00,18.5,17.1,30.45,WSW,238,0.0,0.0,94,0.00,,,0.00,meteohub,2013-01-07 13:38:00,
2013-01-07 08:43:00,18.3,16.7,30.45,WSW,238,0.0,0.0,93,0.00,,,0.00,meteohub,2013-01-07 13:43:00,
2013-01-07 08:48:00,18.3,16.7,30.45,WSW,238,0.0,0.0,93,0.00,,,0.00,meteohub,2013-01-07 13:48:00,
2013-01-07 08:53:00,18.1,16.5,30.46,WSW,238,0.0,0.0,93,0.00,,,0.00,meteohub,2013-01-07 13:53:00,
2013-01-07 08:59:00,18.1,16.5,30.46,WSW,238,0.0,0.0,93,0.00,,,0.00,meteohub,2013-01-07 13:59:00,
2013-01-07 09:04:00,18.0,16.3,30.46,SW,236,0.0,0.0,93,0.00,,,0.00,meteohub,2013-01-07 14:04:00,
2013-01-07 09:09:00,18.0,16.3,30.45,SW,233,0.0,0.0,93,0.00,,,0.00,meteohub,2013-01-07 14:09:00,
2013-01-07 09:14:00,18.3,16.7,30.46,SW,223,0.0,0.0,93,0.00,,,0.00,meteohub,2013-01-07 14:14:00,
2013-01-07 09:19:00,19.0,17.6,30.46,SW,222,0.0,0.0,94,0.00,,,0.00,meteohub,2013-01-07 14:19:00,
2013-01-07 09:24:00,19.4,17.8,30.46,SSW,208,0.0,0.0,93,0.00,,,0.00,meteohub,2013-01-07 14:24:00,
2013-01-07 09:29:00,20.3,18.9,30.46,SSE,153,0.0,0.0,94,0.00,,,0.00,meteohub,2013-01-07 14:29:00,
2013-01-07 09:34:00,21.4,19.9,30.46,SSE,153,0.0,0.0,94,0.00,,,0.00,meteohub,2013-01-07 14:34:00,
2013-01-07 09:39:00,21.7,20.1,30.46,SSE,157,0.0,0.0,93,0.00,,,0.00,meteohub,2013-01-07 14:39:00,
2013-01-07 09:44:00,22.1,20.1,30.46,SSE,156,0.0,0.0,92,0.00,,,0.00,meteohub,2013-01-07 14:44:00,
2013-01-07 09:49:00,22.3,20.1,30.46,SSE,166,1.0,0.0,91,0.00,,,0.00,meteohub,2013-01-07 14:49:00,
2013-01-07 09:54:00,22.8,20.8,30.46,SSE,162,0.0,1.0,92,0.00,,,0.00,meteohub,2013-01-07 14:54:00,
2013-01-07 09:59:00,23.2,20.7,30.46,SSE,163,0.0,1.0,90,0.00,,,0.00,meteohub,2013-01-07 14:59:00,
2013-01-07 10:04:00,23.5,21.0,30.46,SSE,163,0.0,1.0,90,0.00,,,0.00,meteohub,2013-01-07 15:04:00,
2013-01-07 10:09:00,23.7,21.2,30.45,SSE,166,0.0,1.0,90,0.00,,,0.00,meteohub,2013-01-07 15:09:00,
2013-01-07 10:14:00,24.3,21.7,30.45,SSE,166,0.0,0.0,90,0.00,,,0.00,meteohub,2013-01-07 15:14:00,
2013-01-07 10:19:00,24.6,21.9,30.45,SW,214,0.0,0.0,89,0.00,,,0.00,meteohub,2013-01-07 15:19:00,
2013-01-07 10:24:00,25.2,22.5,30.45,SW,215,0.0,0.0,89,0.00,,,0.00,meteohub,2013-01-07 15:24:00,
2013-01-07 10:29:00,25.5,22.5,30.45,SW,226,0.0,0.0,88,0.00,,,0.00,meteohub,2013-01-07 15:29:00,
2013-01-07 10:34:00,25.9,22.5,30.44,SW,219,0.0,0.0,87,0.00,,,0.00,meteohub,2013-01-07 15:34:00,
2013-01-07 10:39:00,26.1,22.5,30.44,SSW,211,0.0,0.0,86,0.00,,,0.00,meteohub,2013-01-07 15:39:00,
2013-01-07 10:44:00,26.2,22.6,30.44,SW,214,0.0,0.0,86,0.00,,,0.00,meteohub,2013-01-07 15:44:00,
2013-01-07 10:49:00,26.4,22.5,30.44,SW,215,0.0,0.0,85,0.00,,,0.00,meteohub,2013-01-07 15:49:00,
2013-01-07 10:54:00,26.8,22.8,30.44,SW,214,0.0,0.0,85,0.00,,,0.00,meteohub,2013-01-07 15:54:00,
2013-01-07 10:59:00,27.1,23.2,30.44,SSW,207,0.0,0.0,85,0.00,,,0.00,meteohub,2013-01-07 15:59:00,
2013-01-07 11:04:00,27.9,23.7,30.44,SSW,205,0.0,0.0,84,0.00,,,0.00,meteohub,2013-01-07 16:04:00,
2013-01-07 11:09:00,28.2,24.1,30.43,SSW,193,0.0,0.0,84,0.00,,,0.00,meteohub,2013-01-07 16:09:00,
2013-01-07 11:14:00,28.9,24.4,30.43,SSW,208,0.0,0.0,83,0.00,,,0.00,meteohub,2013-01-07 16:14:00,
2013-01-07 11:19:00,29.7,25.2,30.42,SSW,212,0.0,0.0,83,0.00,,,0.00,meteohub,2013-01-07 16:19:00,
2013-01-07 11:24:00,30.9,26.1,30.42,SW,233,0.0,3.0,82,0.00,,,0.00,meteohub,2013-01-07 16:24:00,
2013-01-07 11:29:00,32.0,26.6,30.42,SE,132,0.0,3.0,80,0.00,,,0.00,meteohub,2013-01-07 16:29:00,
2013-01-07 11:34:00,32.7,26.2,30.42,SSE,156,4.0,5.0,77,0.00,,,0.00,meteohub,2013-01-07 16:34:00,
2013-01-07 11:39:00,32.7,26.2,30.42,ESE,122,4.0,6.0,77,0.00,,,0.00,meteohub,2013-01-07 16:39:00,
2013-01-07 11:44:00,33.3,26.8,30.41,South,185,6.0,6.0,77,0.00,,,0.00,meteohub,2013-01-07 16:44:00,
2013-01-07 11:49:00,33.3,26.6,30.40,SSE,165,2.0,7.0,76,0.00,,,0.00,meteohub,2013-01-07 16:49:00,
2013-01-07 11:54:00,34.0,27.5,30.40,SE,138,1.0,7.0,77,0.00,,,0.00,meteohub,2013-01-07 16:54:00,
2013-01-07 11:59:00,34.7,27.7,30.40,SW,214,4.0,6.0,75,0.00,,,0.00,meteohub,2013-01-07 16:59:00,
2013-01-07 12:04:00,34.5,26.8,30.40,SE,130,2.0,6.0,73,0.00,,,0.00,meteohub,2013-01-07 17:04:00,
2013-01-07 12:09:00,35.1,27.7,30.39,ENE,63,2.0,7.0,74,0.00,,,0.00,meteohub,2013-01-07 17:09:00,
2013-01-07 12:14:00,35.1,27.0,30.39,SSW,210,4.0,7.0,72,0.00,,,0.00,meteohub,2013-01-07 17:14:00,
2013-01-07 12:19:00,35.2,27.1,30.39,ESE,115,0.0,7.0,72,0.00,,,0.00,meteohub,2013-01-07 17:19:00,
2013-01-07 12:24:00,36.1,28.0,30.38,SE,141,2.0,7.0,72,0.00,,,0.00,meteohub,2013-01-07 17:24:00,
2013-01-07 12:29:00,36.3,27.5,30.38,South,187,1.0,7.0,70,0.00,,,0.00,meteohub,2013-01-07 17:29:00,
2013-01-07 12:34:00,36.3,27.5,30.38,WSW,257,2.0,8.0,70,0.00,,,0.00,meteohub,2013-01-07 17:34:00,
2013-01-07 12:39:00,36.1,27.3,30.38,SW,219,7.0,8.0,70,0.00,,,0.00,meteohub,2013-01-07 17:39:00,
2013-01-07 12:44:00,36.1,27.3,30.37,SSW,211,11.0,11.0,70,0.00,,,0.00,meteohub,2013-01-07 17:44:00,
2013-01-07 12:49:00,36.1,27.3,30.37,West,273,5.0,11.0,70,0.00,,,0.00,meteohub,2013-01-07 17:49:00,
2013-01-07 12:54:00,36.3,26.8,30.37,SW,234,8.0,11.0,68,0.00,,,0.00,meteohub,2013-01-07 17:54:00,
2013-01-07 12:59:00,36.1,26.6,30.37,SSW,201,6.0,13.0,68,0.00,,,0.00,meteohub,2013-01-07 17:59:00,
2013-01-07 13:04:00,36.3,27.1,30.36,SSE,165,1.0,13.0,69,0.00,,,0.00,meteohub,2013-01-07 18:04:00,
2013-01-07 13:09:00,36.7,27.1,30.35,SW,235,6.0,13.0,68,0.00,,,0.00,meteohub,2013-01-07 18:09:00,
2013-01-07 13:14:00,36.9,27.7,30.35,South,191,2.0,12.0,69,0.00,,,0.00,meteohub,2013-01-07 18:14:00,
2013-01-07 13:20:00,37.4,27.5,30.35,SSE,149,1.0,8.0,67,0.00,,,0.00,meteohub,2013-01-07 18:20:00,
2013-01-07 13:25:00,37.8,27.9,30.35,SW,219,5.0,7.0,67,0.00,,,0.00,meteohub,2013-01-07 18:25:00,
2013-01-07 13:30:00,37.9,27.7,30.35,West,268,4.0,6.0,66,0.00,,,0.00,meteohub,2013-01-07 18:30:00,
2013-01-07 13:35:00,37.8,27.5,30.35,South,170,3.0,10.0,66,0.00,,,0.00,meteohub,2013-01-07 18:35:00,
2013-01-07 13:40:00,37.8,27.5,30.34,South,188,5.0,10.0,66,0.00,,,0.00,meteohub,2013-01-07 18:40:00,
2013-01-07 13:45:00,37.9,27.7,30.34,SSW,194,4.0,10.0,66,0.00,,,0.00,meteohub,2013-01-07 18:45:00,
2013-01-07 13:50:00,38.1,27.9,30.33,West,268,5.0,9.0,66,0.00,,,0.00,meteohub,2013-01-07 18:50:00,
2013-01-07 13:55:00,38.5,28.0,30.33,NNW,333,0.0,8.0,66,0.00,,,0.00,meteohub,2013-01-07 18:55:00,
2013-01-07 14:00:00,38.8,28.0,30.33,SSE,159,5.0,8.0,65,0.00,,,0.00,meteohub,2013-01-07 19:00:00,
2013-01-07 14:05:00,39.0,27.9,30.33,South,184,4.0,7.0,64,0.00,,,0.00,meteohub,2013-01-07 19:05:00,
2013-01-07 14:10:00,39.6,28.4,30.32,SSE,159,0.0,7.0,64,0.00,,,0.00,meteohub,2013-01-07 19:10:00,
2013-01-07 14:15:00,40.3,28.8,30.32,South,188,2.0,7.0,63,0.00,,,0.00,meteohub,2013-01-07 19:15:00,
2013-01-07 14:20:00,40.1,27.7,30.32,SW,214,1.0,5.0,61,0.00,,,0.00,meteohub,2013-01-07 19:20:00,
2013-01-07 14:25:00,39.9,27.5,30.32,SW,222,1.0,6.0,61,0.00,,,0.00,meteohub,2013-01-07 19:25:00,
2013-01-07 14:30:00,40.3,27.9,30.31,West,281,5.0,6.0,61,0.00,,,0.00,meteohub,2013-01-07 19:30:00,
2013-01-07 14:35:00,40.3,27.9,30.32,SSW,211,3.0,6.0,61,0.00,,,0.00,meteohub,2013-01-07 19:35:00,
2013-01-07 14:40:00,40.1,27.3,30.31,SSW,211,2.0,9.0,60,0.00,,,0.00,meteohub,2013-01-07 19:40:00,
2013-01-07 14:45:00,40.3,27.5,30.31,WSW,250,2.0,9.0,60,0.00,,,0.00,meteohub,2013-01-07 19:45:00,
2013-01-07 14:50:00,40.1,27.7,30.31,South,186,5.0,9.0,61,0.00,,,0.00,meteohub,2013-01-07 19:50:00,
2013-01-07 14:55:00,40.1,27.3,30.31,WSW,255,3.0,7.0,60,0.00,,,0.00,meteohub,2013-01-07 19:55:00,
2013-01-07 15:00:00,40.1,27.7,30.31,West,274,2.0,7.0,61,0.00,,,0.00,meteohub,2013-01-07 20:00:00,
2013-01-07 15:05:00,40.5,27.7,30.30,South,181,0.0,7.0,60,0.00,,,0.00,meteohub,2013-01-07 20:05:00,
2013-01-07 15:10:00,41.2,27.9,30.30,SSW,212,3.0,6.0,59,0.00,,,0.00,meteohub,2013-01-07 20:10:00,
2013-01-07 15:15:00,40.8,28.0,30.30,WSW,246,2.0,7.0,60,0.00,,,0.00,meteohub,2013-01-07 20:15:00,
2013-01-07 15:19:00,40.8,28.0,30.30,West,267,1.0,7.0,60,0.00,,,0.00,meteohub,2013-01-07 20:19:00,
2013-01-07 15:24:00,40.8,27.7,30.30,SW,222,3.0,7.0,59,0.00,,,0.00,meteohub,2013-01-07 20:24:00,
2013-01-07 15:29:00,40.8,28.0,30.30,SSW,212,1.0,7.0,60,0.00,,,0.00,meteohub,2013-01-07 20:29:00,
2013-01-07 15:34:00,41.2,28.4,30.30,SSW,205,2.0,7.0,60,0.00,,,0.00,meteohub,2013-01-07 20:34:00,
2013-01-07 15:39:00,41.0,27.9,30.30,SSW,194,5.0,7.0,59,0.00,,,0.00,meteohub,2013-01-07 20:39:00,
2013-01-07 15:44:00,40.8,28.0,30.30,SSW,211,2.0,6.0,60,0.00,,,0.00,meteohub,2013-01-07 20:44:00,
2013-01-07 15:49:00,40.8,28.4,30.30,SSW,205,3.0,6.0,61,0.00,,,0.00,meteohub,2013-01-07 20:49:00,
2013-01-07 15:54:00,41.2,28.8,30.29,SSE,158,1.0,6.0,61,0.00,,,0.00,meteohub,2013-01-07 20:54:00,
2013-01-07 15:59:00,41.2,28.4,30.29,South,172,2.0,5.0,60,0.00,,,0.00,meteohub,2013-01-07 20:59:00,
2013-01-07 16:04:00,40.8,28.0,30.29,SSW,197,3.0,5.0,60,0.00,,,0.00,meteohub,2013-01-07 21:04:00,
2013-01-07 16:09:00,41.2,27.9,30.29,SW,218,7.0,7.0,59,0.00,,,0.00,meteohub,2013-01-07 21:09:00,
2013-01-07 16:14:00,41.0,28.2,30.29,SSE,148,4.0,6.0,60,0.00,,,0.00,meteohub,2013-01-07 21:14:00,
2013-01-07 16:19:00,41.0,28.2,30.28,SSE,149,2.0,7.0,60,0.00,,,0.00,meteohub,2013-01-07 21:19:00,
2013-01-07 16:24:00,40.6,28.2,30.28,SW,233,3.0,7.0,61,0.00,,,0.00,meteohub,2013-01-07 21:24:00,
2013-01-07 16:29:00,39.7,27.9,30.28,SE,145,0.0,5.0,62,0.00,,,0.00,meteohub,2013-01-07 21:29:00,
2013-01-07 16:34:00,38.8,27.7,30.28,SW,226,1.0,4.0,64,0.00,,,0.00,meteohub,2013-01-07 21:34:00,
2013-01-07 16:39:00,38.5,27.3,30.28,SSW,200,2.0,3.0,64,0.00,,,0.00,meteohub,2013-01-07 21:39:00,
2013-01-07 16:44:00,38.5,27.7,30.27,SSE,147,1.0,3.0,65,0.00,,,0.00,meteohub,2013-01-07 21:44:00,
2013-01-07 16:49:00,37.6,27.7,30.27,SE,128,0.0,5.0,67,0.00,,,0.00,meteohub,2013-01-07 21:49:00,
2013-01-07 16:54:00,37.6,27.7,30.27,SSE,155,0.0,5.0,67,0.00,,,0.00,meteohub,2013-01-07 21:54:00,
2013-01-07 16:59:00,37.2,27.3,30.27,SSE,160,0.0,5.0,67,0.00,,,0.00,meteohub,2013-01-07 21:59:00,
2013-01-07 17:04:00,36.7,27.1,30.27,South,172,0.0,4.0,68,0.00,,,0.00,meteohub,2013-01-07 22:04:00,
2013-01-07 17:09:00,36.0,26.8,30.27,SSE,165,0.0,4.0,69,0.00,,,0.00,meteohub,2013-01-07 22:09:00,
2013-01-07 17:14:00,35.1,26.2,30.27,SSE,160,1.0,3.0,70,0.00,,,0.00,meteohub,2013-01-07 22:14:00,
2013-01-07 17:19:00,34.3,26.2,30.26,SSE,163,1.0,3.0,72,0.00,,,0.00,meteohub,2013-01-07 22:19:00,
2013-01-07 17:24:00,34.0,26.2,30.26,SW,235,0.0,3.0,73,0.00,,,0.00,meteohub,2013-01-07 22:24:00,
2013-01-07 17:29:00,33.4,25.7,30.26,South,172,0.0,3.0,73,0.00,,,0.00,meteohub,2013-01-07 22:29:00,
2013-01-07 17:34:00,32.9,25.9,30.26,South,174,2.0,2.0,75,0.00,,,0.00,meteohub,2013-01-07 22:34:00,
2013-01-07 17:39:00,32.7,26.1,30.25,SSE,148,1.0,1.0,76,0.00,,,0.00,meteohub,2013-01-07 22:39:00,
2013-01-07 17:44:00,32.4,25.7,30.25,SSE,155,0.0,2.0,76,0.00,,,0.00,meteohub,2013-01-07 22:44:00,
2013-01-07 17:49:00,31.6,25.5,30.25,SSE,167,2.0,2.0,78,0.00,,,0.00,meteohub,2013-01-07 22:49:00,
2013-01-07 17:54:00,31.5,25.7,30.25,South,173,0.0,3.0,79,0.00,,,0.00,meteohub,2013-01-07 22:54:00,
2013-01-07 17:59:00,31.5,25.7,30.25,South,173,0.0,3.0,79,0.00,,,0.00,meteohub,2013-01-07 22:59:00,
2013-01-07 18:04:00,31.3,25.5,30.25,SSE,153,0.0,3.0,79,0.00,,,0.00,meteohub,2013-01-07 23:04:00,
2013-01-07 18:09:00,31.1,25.9,30.25,East,88,0.0,3.0,81,0.00,,,0.00,meteohub,2013-01-07 23:09:00,
2013-01-07 18:14:00,30.7,25.3,30.25,SSE,153,0.0,2.0,80,0.00,,,0.00,meteohub,2013-01-07 23:14:00,
2013-01-07 18:19:00,30.6,25.3,30.25,SSE,166,0.0,2.0,81,0.00,,,0.00,meteohub,2013-01-07 23:19:00,
2013-01-07 18:25:00,30.0,25.2,30.25,SSE,164,0.0,2.0,82,0.00,,,0.00,meteohub,2013-01-07 23:25:00,
2013-01-07 18:30:00,29.7,24.8,30.25,SSE,149,0.0,1.0,82,0.00,,,0.00,meteohub,2013-01-07 23:30:00,
2013-01-07 18:35:00,29.1,24.3,30.25,SE,138,0.0,1.0,82,0.00,,,0.00,meteohub,2013-01-07 23:35:00,
2013-01-07 18:40:00,28.9,24.4,30.25,SSE,150,0.0,1.0,83,0.00,,,0.00,meteohub,2013-01-07 23:40:00,
2013-01-07 18:45:00,28.6,24.6,30.25,SSE,147,0.0,1.0,85,0.00,,,0.00,meteohub,2013-01-07 23:45:00,
2013-01-07 18:50:00,28.6,25.0,30.25,SE,142,0.0,1.0,86,0.00,,,0.00,meteohub,2013-01-07 23:50:00,
2013-01-07 18:55:00,28.4,24.8,30.24,SE,143,0.0,1.0,86,0.00,,,0.00,meteohub,2013-01-07 23:55:00,
2013-01-07 19:00:00,28.0,24.4,30.24,SSE,165,0.0,1.0,86,0.00,,,0.00,meteohub,2013-01-08 00:00:00,
2013-01-07 19:05:00,27.7,24.1,30.24,WSW,242,0.0,1.0,86,0.00,,,0.00,meteohub,2013-01-08 00:05:00,
2013-01-07 19:10:00,27.5,24.1,30.24,WSW,239,0.0,1.0,87,0.00,,,0.00,meteohub,2013-01-08 00:10:00,
2013-01-07 19:15:00,27.1,23.7,30.24,SW,221,0.0,1.0,87,0.00,,,0.00,meteohub,2013-01-08 00:15:00,
2013-01-07 19:20:00,27.0,23.4,30.24,SW,225,0.0,1.0,86,0.00,,,0.00,meteohub,2013-01-08 00:20:00,
2013-01-07 19:25:00,26.8,23.2,30.24,SW,224,0.0,1.0,86,0.00,,,0.00,meteohub,2013-01-08 00:25:00,
2013-01-07 19:30:00,26.4,22.8,30.24,SW,225,0.0,0.0,86,0.00,,,0.00,meteohub,2013-01-08 00:30:00,
2013-01-07 19:35:00,26.4,23.0,30.24,SW,231,0.0,0.0,87,0.00,,,0.00,meteohub,2013-01-08 00:35:00,
2013-01-07 19:40:00,26.4,23.0,30.24,WSW,238,0.0,1.0,87,0.00,,,0.00,meteohub,2013-01-08 00:40:00,
2013-01-07 19:45:00,26.2,22.8,30.24,SW,221,0.0,1.0,87,0.00,,,0.00,meteohub,2013-01-08 00:45:00,
2013-01-07 19:50:00,25.9,22.5,30.24,SW,222,0.0,1.0,87,0.00,,,0.00,meteohub,2013-01-08 00:50:00,
2013-01-07 19:55:00,25.9,22.8,30.24,SW,229,0.0,1.0,88,0.00,,,0.00,meteohub,2013-01-08 00:55:00,
2013-01-07 20:00:00,25.9,22.8,30.25,SW,231,1.0,1.0,88,0.00,,,0.00,meteohub,2013-01-08 01:00:00,
2013-01-07 20:05:00,25.5,22.3,30.25,SW,221,0.0,1.0,87,0.00,,,0.00,meteohub,2013-01-08 01:05:00,
2013-01-07 20:10:00,25.3,22.3,30.25,WSW,245,0.0,1.0,88,0.00,,,0.00,meteohub,2013-01-08 01:10:00,
2013-01-07 20:15:00,25.5,22.8,30.25,SSW,209,0.0,1.0,89,0.00,,,0.00,meteohub,2013-01-08 01:15:00,
2013-01-07 20:20:00,25.3,22.3,30.24,SSW,207,0.0,1.0,88,0.00,,,0.00,meteohub,2013-01-08 01:20:00,
2013-01-07 20:25:00,25.0,22.3,30.24,SSW,211,0.0,1.0,89,0.00,,,0.00,meteohub,2013-01-08 01:25:00,
2013-01-07 20:30:00,25.0,22.3,30.24,SW,227,0.0,1.0,89,0.00,,,0.00,meteohub,2013-01-08 01:30:00,
2013-01-07 20:35:00,24.6,21.9,30.24,SW,224,0.0,1.0,89,0.00,,,0.00,meteohub,2013-01-08 01:35:00,
2013-01-07 20:40:00,24.6,22.1,30.24,SW,224,0.0,1.0,90,0.00,,,0.00,meteohub,2013-01-08 01:40:00,
2013-01-07 20:45:00,24.8,22.3,30.24,SW,227,0.0,1.0,90,0.00,,,0.00,meteohub,2013-01-08 01:45:00,
2013-01-07 20:50:00,24.8,22.3,30.24,SW,217,0.0,1.0,90,0.00,,,0.00,meteohub,2013-01-08 01:50:00,
2013-01-07 20:55:00,24.8,22.3,30.24,SW,224,0.0,1.0,90,0.00,,,0.00,meteohub,2013-01-08 01:55:00,
2013-01-07 21:00:00,24.6,22.1,30.23,SW,226,0.0,1.0,90,0.00,,,0.00,meteohub,2013-01-08 02:00:00,
2013-01-07 21:05:00,24.6,22.1,30.23,SW,234,0.0,1.0,90,0.00,,,0.00,meteohub,2013-01-08 02:05:00,
2013-01-07 21:10:00,24.4,21.9,30.23,SW,234,0.0,1.0,90,0.00,,,0.00,meteohub,2013-01-08 02:10:00,
2013-01-07 21:15:00,24.1,21.4,30.23,SW,224,0.0,1.0,89,0.00,,,0.00,meteohub,2013-01-08 02:15:00,
2013-01-07 21:20:00,23.7,21.2,30.23,SW,221,0.0,1.0,90,0.00,,,0.00,meteohub,2013-01-08 02:20:00,
2013-01-07 21:25:00,23.7,21.6,30.23,SW,235,0.0,1.0,91,0.00,,,0.00,meteohub,2013-01-08 02:25:00,
2013-01-07 21:30:00,23.4,20.8,30.23,WSW,239,1.0,1.0,90,0.00,,,0.00,meteohub,2013-01-08 02:30:00,
2013-01-07 21:35:00,23.7,21.6,30.23,SW,231,0.0,1.0,91,0.00,,,0.00,meteohub,2013-01-08 02:35:00,
2013-01-07 21:41:00,24.3,22.5,30.23,SW,233,0.0,1.0,93,0.00,,,0.00,meteohub,2013-01-08 02:41:00,
2013-01-07 21:46:00,24.6,22.6,30.23,WSW,242,0.0,1.0,92,0.00,,,0.00,meteohub,2013-01-08 02:46:00,
2013-01-07 21:51:00,24.4,22.3,30.23,WSW,239,0.0,1.0,91,0.00,,,0.00,meteohub,2013-01-08 02:51:00,
2013-01-07 21:56:00,23.7,21.2,30.23,WSW,238,0.0,0.0,90,0.00,,,0.00,meteohub,2013-01-08 02:56:00,
2013-01-07 22:01:00,23.5,21.0,30.22,SW,233,0.0,1.0,90,0.00,,,0.00,meteohub,2013-01-08 03:01:00,
2013-01-07 22:06:00,23.5,21.4,30.23,SW,235,0.0,1.0,91,0.00,,,0.00,meteohub,2013-01-08 03:06:00,
2013-01-07 22:11:00,23.5,21.6,30.23,SW,232,0.0,1.0,92,0.00,,,0.00,meteohub,2013-01-08 03:11:00,
2013-01-07 22:16:00,23.4,21.2,30.23,SW,228,1.0,1.0,91,0.00,,,0.00,meteohub,2013-01-08 03:16:00,
2013-01-07 22:21:00,23.4,21.4,30.24,WSW,243,0.0,1.0,92,0.00,,,0.00,meteohub,2013-01-08 03:21:00,
2013-01-07 22:26:00,23.2,21.0,30.24,SW,219,1.0,1.0,91,0.00,,,0.00,meteohub,2013-01-08 03:26:00,
2013-01-07 22:31:00,22.8,20.7,30.24,SSW,211,0.0,1.0,91,0.00,,,0.00,meteohub,2013-01-08 03:31:00,
2013-01-07 22:36:00,22.6,20.7,30.24,SW,235,0.0,1.0,92,0.00,,,0.00,meteohub,2013-01-08 03:36:00,
2013-01-07 22:41:00,23.2,21.4,30.24,SW,223,0.0,1.0,93,0.00,,,0.00,meteohub,2013-01-08 03:41:00,
2013-01-07 22:46:00,23.4,21.6,30.24,SSW,210,0.0,1.0,93,0.00,,,0.00,meteohub,2013-01-08 03:46:00,
2013-01-07 22:51:00,23.2,21.2,30.24,WSW,255,1.0,1.0,92,0.00,,,0.00,meteohub,2013-01-08 03:51:00,
2013-01-07 22:56:00,23.4,21.6,30.24,West,269,0.0,1.0,93,0.00,,,0.00,meteohub,2013-01-08 03:56:00,
2013-01-07 23:01:00,23.4,21.6,30.25,West,278,0.0,1.0,93,0.00,,,0.00,meteohub,2013-01-08 04:01:00,
2013-01-07 23:06:00,23.4,21.4,30.25,NW,320,0.0,1.0,92,0.00,,,0.00,meteohub,2013-01-08 04:06:00,
2013-01-07 23:11:00,23.2,21.2,30.25,NW,312,0.0,1.0,92,0.00,,,0.00,meteohub,2013-01-08 04:11:00,
2013-01-07 23:16:00,22.8,20.8,30.25,South,176,0.0,1.0,92,0.00,,,0.00,meteohub,2013-01-08 04:16:00,
2013-01-07 23:21:00,22.8,20.8,30.25,SSE,168,0.0,0.0,92,0.00,,,0.00,meteohub,2013-01-08 04:21:00,
2013-01-07 23:26:00,22.6,20.8,30.25,SSE,165,0.0,0.0,93,0.00,,,0.00,meteohub,2013-01-08 04:26:00,
2013-01-07 23:31:00,22.6,20.8,30.25,WNW,297,0.0,0.0,93,0.00,,,0.00,meteohub,2013-01-08 04:31:00,
2013-01-07 23:36:00,22.6,20.8,30.25,West,264,0.0,0.0,93,0.00,,,0.00,meteohub,2013-01-08 04:36:00,
2013-01-07 23:41:00,22.6,20.8,30.25,SSE,155,0.0,1.0,93,0.00,,,0.00,meteohub,2013-01-08 04:41:00,
2013-01-07 23:46:00,22.6,20.8,30.25,NW,323,0.0,1.0,93,0.00,,,0.00,meteohub,2013-01-08 04:46:00,
2013-01-07 23:51:00,22.8,21.0,30.25,NNE,25,0.0,1.0,93,0.00,,,0.00,meteohub,2013-01-08 04:51:00,
2013-01-07 23:56:00,22.6,20.8,30.25,NNE,16,0.0,0.0,93,0.00,,,0.00,meteohub,2013-01-08 04:56:00,